Date String (YYYY-MM-DD hh:mm:ss) UTC,Instrument flags,Ambient pressure (hPa),Sample flow (lpm),Bypass flow (lpm),Sample temperature (°C),Ambient temperature (°C),ASC tube jacket temperature (°C),LED temperature (°C),Box temperature (°C),Sample RH (%),Span deviation,Mass concentration (μg/m³),Mass concentration (μg/m³),Mass concentration (μg/m³)
DateTimeUTC,F1_M11,P_M11,Q1_M11,Q2_M11,T1_M11,T2_M11,T3_M11,T4_M11,T5_M11,U1_M11,ZSPAN_M11,X0_M11,X2_M11,X1_M11
2023-05-02 18:00:00,,0829.9,5.01,0.00,28.1,26.8,00.0,36.3,29.7,16.0,0004.3,0025.22,0010.56,0008.93
2023-05-02 18:01:00,,0830.0,4.98,0.00,28.1,26.8,00.0,36.4,29.7,16.3,0004.5,0023.89,0010.59,0008.96
2023-05-02 18:02:00,,0830.0,5.01,0.00,28.1,26.8,00.0,36.4,29.7,15.8,0004.8,0022.98,0010.69,0009.03
2023-05-02 18:03:00,,0830.0,5.01,0.00,28.1,26.8,00.0,36.4,29.7,15.8,0004.6,0023.05,0010.86,0009.11
2023-05-02 18:04:00,,0829.9,5.00,0.00,28.1,26.9,00.0,36.4,29.7,16.0,0004.3,0024.00,0010.99,0009.18
2023-05-02 18:05:00,,0830.0,4.99,0.00,28.2,26.9,00.0,36.4,29.7,16.0,0004.1,0023.50,0010.99,0009.23
2023-05-02 18:06:00,,0830.0,5.00,0.00,28.2,27.0,00.0,36.4,29.7,16.1,0003.9,0024.14,0011.11,0009.27
2023-05-02 18:07:00,,0830.0,5.00,0.00,28.2,27.0,00.0,36.4,29.7,15.8,0003.8,0024.11,0011.14,0009.30
2023-05-02 18:08:00,,0829.9,5.01,0.00,28.2,27.0,00.0,36.5,29.8,16.2,0003.8,0025.03,0011.11,0009.35
2023-05-02 18:09:00,,0829.9,5.00,0.00,28.2,27.0,00.0,36.5,29.8,16.1,0003.9,0024.07,0011.14,0009.37
2023-05-02 18:10:00,,0829.9,5.00,0.00,28.2,27.0,00.0,36.5,29.8,15.8,0004.1,0023.22,0011.19,0009.41
2023-05-02 18:11:00,,0829.9,5.01,0.00,28.2,27.0,00.0,36.5,29.8,15.9,0004.3,0022.97,0011.24,0009.45
2023-05-02 18:12:00,,0829.9,5.01,0.00,28.2,27.0,00.0,36.5,29.9,16.1,0004.3,0023.21,0011.28,0009.51
2023-05-02 18:13:00,,0829.9,5.00,0.00,28.3,27.0,00.0,36.5,29.9,16.0,0004.0,0023.38,0011.33,0009.53
2023-05-02 18:14:00,,0829.9,4.99,0.00,28.3,27.0,00.0,36.5,29.9,15.9,0004.1,0023.36,0011.35,0009.56
2023-05-02 18:15:00,,0829.9,4.99,0.00,28.2,27.0,00.0,36.6,29.8,15.9,0004.1,0023.07,0011.36,0009.58
2023-05-02 18:16:00,,0829.9,5.00,0.00,28.2,26.9,00.0,36.6,29.8,15.8,0004.0,0023.33,0011.40,0009.60
2023-05-02 18:17:00,,0829.9,5.00,0.00,28.2,26.9,00.0,36.6,29.8,16.1,0004.1,0022.84,0011.46,0009.63
2023-05-02 18:18:00,,0829.9,5.01,0.00,28.3,26.9,00.0,36.6,29.8,16.0,0004.1,0022.65,0011.46,0009.65
2023-05-02 18:19:00,,0829.9,5.01,0.00,28.3,27.0,00.0,36.6,29.8,15.9,0004.2,0022.31,0011.46,0009.66
2023-05-02 18:20:00,,0829.8,5.00,0.00,28.3,27.0,00.0,36.6,29.9,15.9,0004.0,0022.23,0011.46,0009.68
2023-05-02 18:21:00,,0829.8,5.01,0.00,28.3,27.0,00.0,36.6,29.9,16.0,0003.6,0022.97,0011.47,0009.69
2023-05-02 18:22:00,,0829.9,4.98,0.00,28.3,27.1,00.0,36.6,29.9,15.9,0003.7,0023.88,0011.51,0009.69
2023-05-02 18:23:00,,0829.9,5.00,0.00,28.3,27.1,00.0,36.6,29.9,16.1,0004.0,0023.84,0011.58,0009.69
2023-05-02 18:24:00,,0829.9,5.01,0.00,28.4,27.2,00.0,36.7,29.9,16.0,0004.2,0023.67,0011.60,0009.71
2023-05-02 18:25:00,,0829.9,5.01,0.00,28.4,27.2,00.0,36.7,30.0,15.9,0004.2,0022.98,0011.58,0009.73
2023-05-02 18:26:00,,0829.9,5.00,0.00,28.4,27.1,00.0,36.7,30.0,15.9,0004.0,0023.59,0011.55,0009.75
2023-05-02 18:27:00,,0829.8,5.00,0.00,28.4,27.1,00.0,36.7,30.0,15.9,0004.3,0023.62,0011.63,0009.79
2023-05-02 18:28:00,,0829.8,4.99,0.00,28.4,27.1,00.0,36.7,30.0,15.9,0004.2,0023.88,0011.70,0009.85
2023-05-02 18:29:00,,0829.8,5.00,0.00,28.4,27.1,00.0,36.7,30.0,15.9,0004.3,0023.84,0011.72,0009.88
2023-05-02 18:30:00,,0829.8,4.99,0.00,28.4,27.1,00.0,36.7,30.0,15.9,0004.1,0024.09,0011.78,0009.93
2023-05-02 18:31:00,,0829.8,5.00,0.00,28.4,27.1,00.0,36.7,30.0,15.9,0004.0,0024.85,0011.86,0009.99
2023-05-02 18:32:00,,0829.8,5.01,0.00,28.4,27.1,00.0,36.7,30.0,15.8,0004.2,0024.84,0011.92,0010.08
2023-05-02 18:33:00,,0829.8,4.99,0.00,28.5,27.1,00.0,36.7,30.1,15.9,0004.1,0024.54,0011.95,0010.14
2023-05-02 18:34:00,,0829.8,5.01,0.00,28.5,27.2,00.0,36.8,30.1,15.9,0003.6,0025.08,0011.94,0010.20
2023-05-02 18:35:00,,0829.8,5.01,0.00,28.5,27.2,00.0,36.8,30.0,15.8,0003.3,0025.46,0012.01,0010.25
2023-05-02 18:36:00,,0829.7,4.99,0.00,28.5,27.3,00.0,36.8,30.0,16.1,0003.5,0026.07,0012.05,0010.28
2023-05-02 18:37:00,,0829.7,4.99,0.00,28.6,27.3,00.0,36.8,30.1,16.1,0003.7,0026.87,0012.15,0010.34
2023-05-02 18:38:00,,0829.7,5.02,0.00,28.6,27.4,00.0,36.8,30.2,16.1,0003.8,0026.84,0012.23,0010.43
2023-05-02 18:39:00,,0829.7,5.00,0.00,28.6,27.4,00.0,36.8,30.2,16.0,0004.0,0026.45,0012.28,0010.51
2023-05-02 18:40:00,,0829.7,5.00,0.00,28.6,27.4,00.0,36.9,30.2,16.2,0004.3,0027.50,0012.35,0010.59
2023-05-02 18:41:00,,0829.6,5.00,0.00,28.6,27.4,00.0,36.9,30.2,16.0,0004.0,0028.38,0012.43,0010.69
2023-05-02 18:42:00,,0829.6,5.00,0.00,28.6,27.4,00.0,36.9,30.2,15.9,0004.2,0027.49,0012.58,0010.81
2023-05-02 18:43:00,,0829.6,4.98,0.00,28.6,27.3,00.0,36.9,30.2,15.9,0004.1,0027.00,0012.66,0010.90
2023-05-02 18:44:00,,0829.5,5.01,0.00,28.6,27.3,00.0,36.9,30.2,16.0,0004.1,0026.98,0012.76,0011.01
2023-05-02 18:45:00,,0829.5,5.00,0.00,28.6,27.3,00.0,36.9,30.2,16.0,0004.4,0027.49,0012.94,0011.12
2023-05-02 18:46:00,,0829.4,5.00,0.00,28.6,27.4,00.0,36.9,30.2,16.1,0004.5,0026.86,0013.02,0011.24
2023-05-02 18:47:00,,0829.5,5.01,0.00,28.6,27.4,00.0,36.9,30.3,15.9,0004.5,0026.72,0013.11,0011.35
2023-05-02 18:48:00,,0829.4,5.00,0.00,28.7,27.4,00.0,36.9,30.3,16.0,0004.6,0026.40,0013.20,0011.45
2023-05-02 18:49:00,,0829.4,4.98,0.00,28.7,27.4,00.0,37.0,30.3,15.9,0004.6,0027.02,0013.25,0011.50
2023-05-02 18:50:00,,0829.3,5.00,0.00,28.7,27.4,00.0,37.0,30.3,16.0,0004.7,0028.37,0013.24,0011.53
2023-05-02 18:51:00,,0829.3,4.99,0.00,28.7,27.3,00.0,37.0,30.3,15.9,0004.4,0028.03,0013.17,0011.54
2023-05-02 18:52:00,,0829.3,5.00,0.00,28.7,27.4,00.0,37.0,30.3,15.9,0004.6,0027.14,0013.19,0011.56
2023-05-02 18:53:00,,0829.3,5.00,0.00,28.7,27.4,00.0,37.0,30.3,16.0,0004.5,0026.96,0013.22,0011.52
2023-05-02 18:54:00,,0829.4,4.99,0.00,28.7,27.4,00.0,37.0,30.3,16.1,0004.5,0027.03,0013.23,0011.48
2023-05-02 18:55:00,,0829.3,4.99,0.00,28.7,27.4,00.0,37.0,30.3,16.2,0004.4,0026.90,0013.24,0011.46
2023-05-02 18:56:00,,0829.3,5.01,0.00,28.8,27.5,00.0,37.0,30.3,16.3,0004.1,0026.34,0013.22,0011.38
2023-05-02 18:57:00,,0829.4,5.01,0.00,28.8,27.5,00.0,37.0,30.4,16.1,0004.3,0026.58,0013.27,0011.36
2023-05-02 18:58:00,,0829.4,4.98,0.00,28.8,27.5,00.0,37.0,30.4,16.0,0004.3,0027.56,0013.31,0011.38
2023-05-02 18:59:00,,0829.4,5.00,0.00,28.8,27.5,00.0,37.1,30.4,16.0,0004.3,0027.72,0013.32,0011.38
